Lapse_Rate
7.6 7.5 7.5 7.4 7.3 7.2 7.0 6.9 6.5 7.1 6.8 6.8 6.4 6.3 6.2 6.2 6.1 6.0 6.0 5.9 5.8 5.7 5.6 5.7 5.8 5.7 5.6 5.6 5.6 5.4 5.3 5.2 5.0 4.6 4.4 4.4 4.3 4.2 4.2 4.4 4.7 5.1 5.4 5.9
7.2 7.3 7.2 7.1 7.0 6.9 6.9 6.8 6.7 6.8 7.1 6.9 6.5 6.4 6.3 6.2 6.1 5.9 5.7 5.6 5.7 5.9 5.9 5.9 6.0 6.1 5.9 5.7 5.6 5.4 5.2 4.9 4.6 4.4 4.3 4.2 4.1 4.2 4.4 4.7 5.2 5.7 6.1 6.4
6.9 7.2 6.9 6.5 7.5 7.7 7.5 7.4 7.0 6.9 6.9 6.4 6.4 6.3 6.2 6.1 5.9 5.8 5.8 5.8 5.7 5.6 5.9 6.0 6.0 5.8 5.6 5.5 5.5 5.3 4.9 4.6 4.4 4.3 4.4 4.2 4.2 4.5 4.8 5.3 6.0 6.2 6.7 6.8
6.7 6.7 4.3 7.2 7.4 7.6 7.5 7.2 6.9 6.9 6.7 6.4 6.2 6.0 6.0 5.8 5.7 5.7 5.6 5.6 5.7 5.9 6.2 6.0 5.8 5.5 5.5 5.4 5.2 5.0 4.8 4.6 4.4 4.4 4.3 4.4 4.7 5.0 5.4 6.0 6.5 7.0 7.1 7.0
6.6 6.2 6.6 7.2 7.3 7.5 7.5 7.4 7.1 6.8 6.6 6.3 6.3 6.1 6.2 5.8 5.7 5.6 5.7 5.8 5.8 5.8 5.7 5.5 5.4 5.5 5.4 5.2 5.0 4.8 4.6 4.5 4.4 4.5 4.6 4.9 5.0 5.4 6.1 6.4 6.8 7.2 7.1 7.0
6.2 5.9 3.2 7.0 7.4 7.3 7.1 6.6 7.1 6.7 6.5 6.4 6.2 6.0 6.2 5.8 5.8 5.7 5.8 5.5 5.5 5.5 5.4 5.3 5.4 5.3 5.2 5.1 5.1 4.9 4.6 4.5 4.6 4.9 5.0 5.3 5.5 6.1 6.6 6.7 7.0 7.1 7.0 6.9
6.0 5.6 5.9 6.9 7.0 7.0 6.4 6.9 6.7 6.6 6.3 6.2 6.2 5.9 5.9 5.8 5.9 5.7 5.5 5.4 5.4 5.2 5.2 5.3 5.2 5.2 5.3 5.2 5.0 4.8 4.6 4.7 4.9 5.1 5.5 5.8 6.2 6.6 7.0 7.0 7.2 7.0 6.8 6.6
6.1 5.5 5.9 7.0 6.9 6.8 6.8 6.5 6.4 6.3 6.1 5.9 5.8 5.7 5.8 5.8 5.7 5.6 5.4 5.3 5.1 5.1 5.2 5.2 5.2 5.3 5.2 5.1 4.9 4.8 4.7 5.0 5.2 5.6 6.0 6.3 6.7 6.9 7.1 7.2 7.2 6.9 6.7 6.8
6.6 6.9 6.9 6.8 6.7 6.5 6.3 6.2 6.0 6.0 5.9 5.9 5.8 5.7 5.6 5.6 5.6 5.6 5.3 5.1 4.9 5.0 5.2 5.2 5.2 5.3 5.2 5.0 4.8 4.9 5.1 5.2 5.5 6.1 6.2 6.6 7.0 7.2 7.2 7.3 7.1 6.9 6.8 6.9
6.4 7.0 6.9 6.5 6.3 6.3 6.1 6.0 6.0 5.9 5.9 5.8 5.7 5.6 5.4 5.7 5.5 5.3 5.0 4.7 4.9 5.1 5.2 5.2 5.3 5.3 5.1 5.0 4.9 5.2 5.2 5.5 6.0 6.3 6.4 6.9 7.2 7.2 7.3 7.2 7.0 6.9 6.9 7.0
6.4 6.8 6.4 6.5 6.4 6.3 6.2 6.1 6.1 6.0 5.9 5.8 5.8 5.8 6.0 5.6 5.2 5.0 4.6 4.6 5.0 5.1 5.3 5.4 5.3 5.2 5.1 5.1 5.2 5.3 5.6 6.0 6.3 6.4 6.7 7.1 7.2 7.1 7.2 7.2 7.1 7.0 7.1 7.1
6.2 6.4 6.3 6.4 6.4 6.4 6.4 6.3 6.1 5.9 5.8 5.9 5.7 6.0 5.7 5.2 5.0 4.6 4.5 5.0 5.2 5.4 5.5 5.4 5.4 5.3 5.3 5.4 5.3 5.6 6.1 6.4 6.5 6.6 7.0 7.1 7.1 7.0 7.2 7.3 7.2 7.1 7.2 7.2
6.5 6.5 6.4 6.3 6.3 6.2 6.1 6.0 5.8 5.6 5.6 6.1 6.2 5.8 5.3 4.9 4.7 4.5 5.0 5.2 5.4 5.5 5.4 5.4 5.4 5.5 5.4 5.5 5.7 6.1 6.4 6.5 6.6 6.8 7.1 7.0 7.1 7.1 7.4 7.4 7.3 7.3 7.3 7.2
6.7 6.6 6.6 6.5 6.4 6.4 6.2 5.9 5.6 5.7 5.9 5.9 5.4 5.0 4.8 4.6 4.5 4.9 5.1 5.4 5.4 5.4 5.5 5.5 5.6 5.6 5.5 5.7 6.1 6.4 6.5 6.7 6.8 7.0 7.1 7.1 7.1 7.1 7.3 7.5 7.4 7.3 7.3 7.3
6.7 6.6 6.6 6.4 6.3 6.1 5.8 5.5 5.7 5.6 5.6 5.1 4.9 4.7 4.5 4.6 5.0 5.3 5.5 5.5 5.4 5.5 5.5 5.6 5.7 5.6 5.9 6.0 6.4 6.5 6.6 7.0 7.1 7.1 7.1 7.2 7.2 7.1 7.2 7.5 7.6 7.5 7.3 7.3
6.4 6.3 6.2 6.0 5.8 5.7 5.7 5.6 5.8 5.3 5.0 4.7 4.5 4.5 4.8 5.2 5.4 5.6 5.5 5.4 5.7 5.7 5.6 5.7 5.8 6.0 6.2 6.3 6.5 6.6 6.9 7.2 7.3 7.3 7.2 7.2 7.3 7.3 7.2 7.4 7.5 7.5 7.4 7.3
6.2 6.1 6.0 5.9 5.8 5.8 5.7 5.3 5.0 4.6 4.5 4.4 4.5 5.0 5.3 5.6 5.6 5.6 5.7 5.7 5.7 5.7 5.8 6.0 6.2 6.2 6.4 6.5 6.5 6.7 7.3 7.3 7.4 7.5 7.5 7.4 7.3 7.3 7.3 7.2 7.4 7.4 7.4 7.4
5.9 5.5 5.4 5.7 5.6 5.2 4.9 4.5 4.4 4.2 4.3 4.8 5.2 5.6 5.7 5.7 5.8 5.9 5.8 6.0 6.0 5.9 6.1 6.3 6.5 6.5 6.5 6.6 6.6 7.0 7.6 7.7 7.7 7.6 7.6 7.5 7.4 7.2 7.2 7.2 7.3 7.4 7.3 7.3
5.3 5.4 5.4 5.0 4.8 4.5 4.2 4.1 4.1 4.6 5.3 5.7 5.8 5.9 6.0 6.1 6.0 6.0 6.0 6.1 6.0 6.0 6.3 6.5 6.7 6.6 6.4 6.6 6.7 7.3 7.8 7.9 7.9 7.8 7.6 7.5 7.4 7.3 7.2 7.1 7.2 7.2 7.3 7.3
5.1 4.8 4.5 4.3 4.0 4.0 4.2 4.9 5.6 5.8 5.9 6.1 6.2 6.2 6.2 6.2 6.3 6.2 6.2 6.3 6.2 6.2 6.4 6.7 6.7 6.4 6.3 6.4 6.6 7.4 7.9 8.0 8.0 7.9 7.6 7.4 7.4 7.3 7.3 7.3 7.2 7.3 7.3 7.3
4.6 4.2 3.9 4.1 4.8 5.4 5.6 5.8 6.0 6.2 6.2 6.3 6.2 6.3 6.5 6.6 6.4 6.3 6.4 6.4 6.4 6.5 6.7 6.7 6.6 6.5 6.5 6.4 6.5 7.4 7.7 7.9 7.9 7.7 7.5 7.4 7.3 7.3 7.2 7.2 7.3 7.3 7.4 7.5
4.5 4.8 5.3 5.5 5.6 5.8 6.0 6.1 6.2 6.2 6.3 6.6 6.7 6.8 6.6 6.6 6.5 6.4 6.3 6.2 6.3 6.5 6.6 6.7 6.6 6.5 6.5 6.5 6.7 7.4 7.5 7.6 7.7 7.6 7.5 7.4 7.3 7.2 7.1 7.2 7.2 7.3 7.4 7.5
5.4 5.4 5.6 5.8 6.0 6.2 6.2 6.2 6.6 6.8 6.9 6.9 6.9 6.8 6.7 6.5 6.2 6.0 6.1 6.3 6.4 6.4 6.5 6.5 6.4 6.4 6.3 6.4 6.6 7.2 7.3 7.4 7.5 7.5 7.5 7.4 7.3 7.2 7.2 7.2 7.2 7.2 7.2 7.3
5.6 5.8 6.0 6.0 6.1 6.6 6.8 6.9 7.0 6.9 6.8 6.8 6.7 6.7 6.6 6.5 6.5 6.4 6.4 6.5 6.5 6.4 6.3 6.2 6.3 6.3 6.2 6.2 6.5 7.0 7.2 7.4 7.5 7.5 7.4 7.4 7.4 7.3 7.2 7.2 7.1 7.2 7.2 7.3
5.7 5.9 6.4 6.4 6.5 6.7 6.8 6.8 6.8 6.8 6.8 6.9 7.0 6.9 6.8 6.8 6.6 6.4 6.3 6.6 6.6 6.4 6.2 6.3 6.3 6.2 6.2 6.3 6.5 6.9 7.2 7.4 7.6 7.6 7.6 7.6 7.5 7.3 7.3 7.2 7.1 7.0 7.1 7.2
6.2 6.5 6.6 6.6 6.6 6.6 6.6 6.8 7.0 7.0 7.1 7.2 7.2 7.0 7.0 7.0 6.9 6.8 6.7 6.7 6.4 6.4 6.3 6.5 6.5 6.4 6.4 6.5 6.8 7.1 7.4 7.6 7.7 7.7 7.7 7.7 7.6 7.4 7.2 7.0 6.9 6.9 7.0 7.1
6.6 6.6 6.6 6.6 6.8 6.8 6.9 7.0 7.0 7.1 6.9 6.8 6.9 6.9 6.8 6.7 6.7 6.6 6.5 6.6 6.2 6.3 6.5 6.6 6.5 6.5 6.5 6.7 7.0 7.2 7.5 7.7 7.8 7.8 7.8 7.8 7.6 7.5 7.2 6.9 6.7 6.9 7.0 7.0
Wind_Speed
2 3 2 2 4 6 6 5 5 4 7 6 9 8 8 7 6 5 4 4 3 4 4 4 4 4 5 4 4 4 5 4 4 5 5 6 7 7 6 5 3 4 4 5
2 4 6 3 5 7 5 3 7 3 7 5 5 7 7 7 7 5 3 1 3 2 2 3 3 3 3 5 6 4 5 4 4 5 6 6 7 7 4 4 5 5 2 1
4 4 4 6 9 9 5 5 7 6 8 6 4 7 8 7 6 5 5 4 3 1 1 2 2 2 4 5 6 6 5 5 5 5 6 6 6 6 5 4 2 2 3 1
2 3 2 5 2 6 7 5 6 2 4 10 6 4 6 5 6 6 5 4 1 1 1 2 2 4 5 5 6 6 6 6 6 6 6 6 5 6 4 2 3 3 2 3
4 3 6 5 4 6 7 7 8 7 5 5 5 4 4 6 5 5 5 3 3 2 2 2 3 4 4 5 6 6 7 7 6 5 5 6 6 6 4 4 3 2 3 3
3 4 6 6 2 4 4 5 6 8 8 8 6 3 5 9 7 6 5 4 5 3 2 3 3 3 4 5 5 5 7 7 5 5 5 6 6 7 4 2 2 3 3 2
2 3 8 6 3 1 5 6 6 9 8 9 6 5 3 7 6 5 5 7 4 3 1 2 3 3 4 5 5 6 8 7 5 4 5 6 6 3 1 2 3 2 1 1
3 2 7 7 3 7 5 1 5 7 7 9 5 6 6 6 7 8 7 5 4 1 1 3 3 1 4 5 6 5 6 6 5 5 5 5 6 5 2 1 2 1 2 3
8 6 4 6 3 1 2 3 4 6 5 9 8 6 8 7 7 6 6 4 1 1 3 4 4 2 5 6 5 5 6 9 10 9 5 4 2 3 1 1 0 1 1 2
2 4 7 8 4 4 5 5 4 5 6 7 7 7 6 6 5 5 4 1 1 2 4 5 5 4 4 6 5 5 8 7 5 5 5 3 2 1 1 1 1 1 2 3
5 8 3 8 7 4 4 4 5 5 5 6 9 7 6 6 5 4 2 1 2 3 4 6 6 5 5 5 7 8 6 7 4 3 2 1 1 0 0 2 3 2 3 3
6 6 4 5 2 6 7 5 6 7 6 6 6 7 5 5 4 3 1 2 3 4 5 5 5 5 6 6 7 9 8 6 5 2 2 1 2 3 5 7 8 9 11 7
3 1 1 2 3 3 6 6 6 8 10 9 5 6 5 3 3 3 1 1 3 4 5 5 6 7 7 6 5 5 7 7 3 3 3 3 3 2 2 4 5 8 8 8
2 4 1 1 2 5 7 10 12 12 9 9 5 4 3 3 3 1 2 2 3 4 5 5 8 9 8 7 4 4 5 6 3 3 4 3 3 3 3 2 3 3 6 4
4 4 2 6 8 9 12 13 13 10 6 4 3 3 2 3 3 3 2 3 3 5 5 6 7 9 7 6 6 6 5 4 3 3 2 3 3 4 3 2 3 4 2 3
6 8 11 12 11 12 13 13 9 5 4 3 2 2 3 3 4 4 4 4 3 4 6 7 8 9 6 5 5 6 6 6 5 3 4 3 4 3 3 3 4 4 3 3
10 7 11 11 12 11 7 3 3 4 3 3 4 3 4 3 3 5 6 6 6 7 7 6 8 7 6 6 6 4 5 4 5 3 3 4 3 4 4 3 4 4 4 4
16 13 11 8 7 4 4 3 2 2 3 3 2 2 3 3 5 6 6 5 5 6 7 9 7 6 6 6 7 5 4 4 4 5 4 3 5 4 4 4 4 4 4 3
11 8 5 5 5 4 2 1 2 2 2 3 3 5 4 5 5 6 4 4 6 7 8 5 6 6 7 7 7 5 5 6 6 6 6 6 5 5 5 5 5 5 5 4
6 5 6 4 3 2 1 2 2 4 5 2 3 5 6 7 5 6 3 6 6 7 7 7 5 6 7 7 9 6 7 8 8 7 6 6 7 7 6 7 7 5 5 5
6 4 4 3 2 3 3 3 2 5 6 3 5 7 7 7 4 4 4 5 4 5 6 5 6 6 6 6 7 7 7 7 8 8 9 8 8 8 8 7 7 6 6 6
2 2 1 1 2 4 4 4 4 5 6 7 6 6 6 9 6 9 7 8 5 6 2 4 5 8 8 11 7 7 7 8 8 7 8 8 8 8 8 8 7 7 6 6
3 2 2 2 3 5 6 5 5 4 7 7 8 8 7 8 4 4 7 5 4 4 4 5 7 10 11 7 7 8 8 8 8 7 7 8 8 8 8 8 8 8 7 6
3 5 4 5 3 4 8 9 8 9 7 9 9 10 8 7 6 6 6 6 5 5 3 4 5 7 8 5 7 8 9 9 8 7 8 9 8 8 7 8 8 8 7 6
6 6 6 7 7 6 9 10 10 8 11 12 12 11 11 6 7 4 3 3 5 2 2 4 5 6 3 5 6 6 8 8 8 10 10 9 8 8 7 8 8 8 6 6
7 5 5 7 6 6 7 8 9 10 10 12 12 11 9 5 6 6 4 4 2 2 1 2 2 3 3 5 6 7 7 8 8 8 9 10 11 9 8 7 7 5 5 4
5 6 6 6 7 8 8 9 9 10 11 11 13 13 13 10 8 7 4 3 3 2 2 3 2 3 4 4 4 5 6 6 7 8 8 9 9 10 11 10 7 4 3 3
Wind_Direction
69 6 344 235 184 175 185 186 178 239 212 236 201 182 166 155 146 131 108 86 69 63 41 14 21 40 30 7 328 318 319 322 330 330 329 335 330 313 327 348 356 3 343 355
187 0 23 294 263 216 222 211 265 268 275 199 146 130 156 163 157 158 152 116 80 58 25 38 45 25 354 327 315 324 328 315 310 338 338 317 313 324 334 330 320 322 350 246
261 357 345 328 223 205 197 187 158 191 227 149 162 180 172 172 176 181 191 183 180 357 5 80 48 337 311 306 317 331 316 302 314 324 310 307 313 317 321 330 325 329 318 289
186 17 353 240 250 213 207 205 192 187 192 186 168 124 152 173 179 198 193 182 200 140 125 124 349 349 337 349 340 329 308 307 301 306 300 303 311 297 272 244 279 261 293 138
139 201 299 286 194 168 173 265 192 191 144 123 100 85 259 199 185 176 165 158 157 165 119 42 12 354 358 348 340 331 305 288 290 299 311 320 315 309 300 271 279 242 165 147
106 144 221 242 253 161 116 295 193 151 163 152 132 159 237 182 173 172 153 132 134 129 89 44 344 338 353 339 326 317 313 301 298 316 328 321 306 304 291 290 178 131 122 86
126 224 288 241 200 177 99 238 163 171 165 155 190 197 174 136 130 130 129 131 119 88 76 297 307 342 344 318 321 313 318 312 304 326 337 306 306 287 250 145 131 106 92 37
100 72 278 175 76 166 215 297 188 175 177 179 127 130 129 122 122 129 139 129 114 81 296 290 300 325 320 323 309 329 332 330 337 329 308 304 298 296 230 300 128 72 8 317
186 215 240 236 230 237 172 171 207 172 161 159 152 162 150 147 150 147 142 136 152 293 307 313 309 318 330 310 322 328 341 333 329 311 298 300 341 24 56 75 133 266 255 286
85 257 230 246 247 222 195 219 192 171 146 147 145 133 113 121 139 136 143 125 353 337 327 315 313 307 311 318 326 317 318 305 305 305 304 302 336 326 314 248 267 269 269 265
260 278 292 262 234 199 191 164 128 105 119 127 117 122 147 135 141 144 137 351 349 337 310 304 315 318 322 321 322 318 304 295 298 288 312 54 312 225 39 278 219 226 243 224
230 226 187 246 317 162 154 158 144 125 102 85 105 139 119 127 145 152 171 1 343 326 310 306 314 312 302 301 316 306 305 304 306 262 236 231 255 278 236 246 271 263 254 222
270 87 170 39 54 108 137 149 129 105 114 111 91 114 122 134 169 144 57 340 321 315 312 313 321 319 312 309 294 279 285 297 284 256 233 239 236 241 273 301 291 277 273 277
89 116 33 144 159 124 93 80 79 76 82 88 106 98 111 136 134 174 257 281 303 307 299 287 317 311 295 291 284 264 281 262 257 262 248 245 261 259 249 224 262 288 290 257
50 20 37 105 80 90 102 103 94 86 89 120 105 129 146 180 221 245 246 269 285 286 288 297 306 295 280 274 265 271 253 253 242 248 248 240 251 266 254 252 251 253 287 303
69 68 76 84 90 86 80 70 88 165 161 142 160 202 209 219 244 236 243 250 243 277 282 294 269 271 277 266 276 279 262 249 238 225 235 240 251 246 261 252 260 262 259 250
104 81 85 78 73 75 115 175 128 139 165 198 231 215 242 241 272 251 244 242 231 247 259 264 269 271 259 243 247 261 263 258 251 262 247 248 238 251 249 240 251 254 252 240
85 90 97 114 142 145 107 104 119 187 222 221 205 196 231 222 246 263 264 279 299 287 276 276 268 273 266 253 246 246 247 250 247 249 250 252 248 245 246 242 244 244 261 266
90 104 107 105 103 110 131 209 228 234 248 228 207 261 249 257 251 260 271 279 286 287 292 267 281 287 287 281 271 260 240 236 237 236 237 242 249 244 244 245 249 246 244 252
80 85 103 109 70 57 312 295 282 291 285 228 249 278 278 273 251 258 251 253 249 265 287 290 296 290 280 285 290 289 269 257 246 246 246 234 237 244 243 241 244 242 244 242
91 80 71 48 357 327 283 280 278 283 285 225 234 262 261 272 249 248 266 272 262 255 277 300 288 286 283 271 272 265 265 268 259 253 250 246 243 241 241 239 239 237 240 238
105 98 34 352 346 315 300 291 270 270 275 277 264 253 261 272 257 262 229 244 281 280 288 295 284 294 300 296 290 276 270 266 263 261 258 250 248 247 244 241 236 234 234 234
57 36 7 343 306 309 311 298 294 270 281 277 272 269 246 253 240 245 274 231 237 257 271 272 290 298 301 299 290 287 283 277 277 272 264 260 257 254 253 250 241 231 225 229
31 26 17 2 348 8 358 340 332 321 298 294 279 269 263 273 267 232 247 260 253 267 272 284 316 327 331 321 323 320 318 310 296 279 273 264 263 261 257 255 251 243 229 215
35 29 20 18 17 3 346 335 328 327 324 319 313 307 291 255 247 266 229 234 252 250 313 323 342 342 328 329 329 325 321 316 313 311 306 289 279 264 256 255 254 245 226 211
36 29 19 17 18 358 344 339 331 330 329 323 319 317 303 278 277 265 248 223 162 102 26 342 355 2 343 352 355 354 355 357 356 346 342 343 328 288 263 257 258 225 213 196
32 23 10 6 3 357 347 334 326 326 323 318 309 312 299 287 281 270 211 143 128 93 30 6 34 25 6 351 350 357 358 356 356 357 359 0 2 2 6 8 16 25 45 55